Date String (YYYY-MM-DD hh:mm:ss) UTC,Instrument flags,Ambient pressure (hPa),Sample flow (lpm),Bypass flow (lpm),Sample temperature (°C),Ambient temperature (°C),ASC tube jacket temperature (°C),LED temperature (°C),Box temperature (°C),Sample RH (%),Span deviation,Mass concentration (μg/m³),Mass concentration (μg/m³),Mass concentration (μg/m³)
DateTimeUTC,F1_M11,P_M11,Q1_M11,Q2_M11,T1_M11,T2_M11,T3_M11,T4_M11,T5_M11,U1_M11,ZSPAN_M11,X0_M11,X2_M11,X1_M11
2022-06-01 01:00:00,,0830.3,5.01,0.00,28.1,27.1,00.0,37.0,30.0,22.2,0000.0,0003.67,0002.63,0002.30
2022-06-01 01:01:00,,0830.2,5.00,0.00,28.1,27.1,00.0,37.0,30.0,22.2,0000.0,0004.28,0002.67,0002.30
2022-06-01 01:02:00,,0830.3,5.00,0.00,28.1,27.1,00.0,37.0,30.0,22.2,0000.0,0004.25,0002.69,0002.30
2022-06-01 01:03:00,,0830.2,5.00,0.00,28.1,27.1,00.0,37.0,30.0,22.3,0000.0,0004.31,0002.71,0002.31
2022-06-01 01:04:00,,0830.2,5.00,0.00,28.1,27.1,00.0,37.0,30.0,22.5,0000.0,0004.23,0002.68,0002.31
2022-06-01 01:05:00,,0830.3,5.01,0.00,28.1,27.1,00.0,37.0,30.0,22.5,0000.0,0004.25,0002.70,0002.32
2022-06-01 01:06:00,,0830.4,5.00,0.00,28.1,27.1,00.0,37.0,30.0,22.7,0000.0,0004.37,0002.75,0002.33
2022-06-01 01:07:00,,0830.4,5.01,0.00,28.1,27.1,00.0,37.0,30.0,22.9,0000.0,0004.44,0002.77,0002.34
2022-06-01 01:08:00,,0830.4,4.99,0.00,28.1,27.1,00.0,37.0,30.0,23.0,0000.0,0004.45,0002.80,0002.35
2022-06-01 01:09:00,,0830.4,5.00,0.00,28.1,27.1,00.0,37.0,30.0,22.9,0000.0,0004.51,0002.83,0002.35
2022-06-01 01:10:00,,0830.4,4.99,0.00,28.1,27.1,00.0,37.0,30.0,22.7,0000.0,0004.45,0002.83,0002.37
2022-06-01 01:11:00,,0830.4,5.01,0.00,28.1,27.1,00.0,37.0,30.0,22.6,0000.0,0004.33,0002.84,0002.37
2022-06-01 01:12:00,,0830.4,5.00,0.00,28.1,27.1,00.0,37.0,30.0,22.5,0000.0,0003.72,0002.82,0002.37
2022-06-01 01:13:00,,0830.6,5.00,0.00,28.1,27.1,00.0,37.0,30.0,22.6,0000.0,0003.76,0002.83,0002.39
2022-06-01 01:14:00,,0830.6,5.00,0.00,28.1,27.1,00.0,37.0,30.0,22.7,0000.0,0003.73,0002.83,0002.39
2022-06-01 01:15:00,,0830.6,5.00,0.00,28.1,27.1,00.0,37.0,30.0,22.6,0000.0,0003.79,0002.85,0002.38
2022-06-01 01:16:00,,0830.6,5.00,0.00,28.1,27.1,00.0,37.0,30.0,22.5,0000.0,0003.83,0002.86,0002.38
2022-06-01 01:17:00,,0830.5,5.00,0.00,28.1,27.1,00.0,37.0,30.0,22.5,0000.0,0003.79,0002.86,0002.38
2022-06-01 01:18:00,,0830.6,5.00,0.00,28.1,27.1,00.0,37.0,30.0,22.6,0000.0,0003.76,0002.85,0002.37
2022-06-01 01:19:00,,0830.6,4.99,0.00,28.1,27.1,00.0,37.0,30.0,22.5,0000.0,0003.84,0002.85,0002.36
2022-06-01 01:20:00,,0830.6,5.01,0.00,28.1,27.1,00.0,37.0,30.0,22.3,0000.0,0003.82,0002.83,0002.37
2022-06-01 01:21:00,,0830.5,5.00,0.00,28.1,27.1,00.0,37.0,30.0,22.3,0000.0,0003.81,0002.83,0002.37
2022-06-01 01:22:00,,0830.5,4.99,0.00,28.1,27.1,00.0,37.0,30.0,22.3,0000.0,0003.80,0002.82,0002.36
2022-06-01 01:23:00,,0830.6,5.00,0.00,28.1,27.1,00.0,37.0,30.0,22.4,0000.0,0003.72,0002.80,0002.36
2022-06-01 01:24:00,,0830.6,5.01,0.00,28.1,27.1,00.0,37.0,30.0,22.5,0000.0,0003.77,0002.81,0002.34
2022-06-01 01:25:00,,0830.7,5.00,0.00,28.1,27.1,00.0,37.0,30.0,22.5,0000.0,0003.84,0002.81,0002.35
2022-06-01 01:26:00,,0830.8,5.00,0.00,28.1,27.1,00.0,37.0,30.0,22.5,0000.0,0003.82,0002.81,0002.36
2022-06-01 01:27:00,,0830.7,5.00,0.00,28.1,27.1,00.0,37.0,30.0,22.5,0000.0,0003.79,0002.80,0002.36
2022-06-01 01:28:00,,0830.8,4.99,0.00,28.1,27.1,00.0,37.0,30.0,22.5,0000.0,0003.95,0002.83,0002.39
2022-06-01 01:29:00,,0830.7,5.00,0.00,28.1,27.1,00.0,37.0,30.0,22.5,0000.0,0004.20,0002.83,0002.40
2022-06-01 01:30:00,,0830.8,5.01,0.00,28.1,27.1,00.0,37.0,30.0,22.6,0000.0,0004.19,0002.85,0002.42
2022-06-01 01:31:00,,0830.7,5.00,0.00,28.1,27.1,00.0,37.0,30.0,22.9,0000.0,0004.15,0002.84,0002.43
2022-06-01 01:32:00,,0830.7,4.99,0.00,28.1,27.1,00.0,37.0,30.0,24.1,0000.0,0004.11,0002.83,0002.44
2022-06-01 01:33:00,,0830.7,5.01,0.00,28.1,27.1,00.0,37.0,30.0,23.4,0000.0,0004.09,0002.83,0002.45
2022-06-01 01:34:00,,0830.8,5.00,0.00,28.1,27.1,00.0,37.0,30.0,22.7,0000.0,0004.17,0002.86,0002.47
2022-06-01 01:35:00,,0830.9,5.00,0.00,28.1,27.1,00.0,37.0,30.0,22.7,0000.0,0004.24,0002.88,0002.49
2022-06-01 01:36:00,,0830.9,5.00,0.00,28.1,27.1,00.0,37.0,30.0,22.8,0000.0,0004.17,0002.88,0002.50
2022-06-01 01:37:00,,0830.9,5.01,0.00,28.1,27.1,00.0,37.0,30.0,22.5,0000.0,0004.20,0002.86,0002.47
2022-06-01 01:38:00,,0831.0,5.00,0.00,28.1,27.1,00.0,37.0,30.0,22.3,0000.0,0004.15,0002.82,0002.44
2022-06-01 01:39:00,,0830.9,5.00,0.00,28.1,27.1,00.0,37.1,30.0,22.7,0000.0,0004.08,0002.80,0002.44
2022-06-01 01:40:00,,0830.9,4.99,0.00,28.2,27.1,00.0,37.1,30.0,22.9,0000.0,0003.85,0002.84,0002.46
2022-06-01 01:41:00,,0830.9,5.02,0.00,28.2,27.1,00.0,37.1,30.0,23.2,0000.0,0003.80,0002.88,0002.49
2022-06-01 01:42:00,,0830.9,5.00,0.00,28.2,27.1,00.0,37.1,30.0,23.1,0000.0,0004.32,0003.18,0002.86
2022-06-01 01:43:00,,0831.0,5.01,0.00,28.1,27.1,00.0,37.1,30.0,22.9,0000.0,0004.75,0003.38,0003.13
2022-06-01 01:44:00,,0830.9,4.99,0.00,28.2,27.1,00.0,37.1,30.0,22.7,0000.0,0004.82,0003.40,0003.15
2022-06-01 01:45:00,,0830.9,4.99,0.00,28.2,27.1,00.0,37.1,30.0,22.8,0000.0,0004.88,0003.41,0003.15
2022-06-01 01:46:00,,0830.9,5.01,0.00,28.1,27.1,00.0,37.1,30.0,22.8,0000.0,0004.71,0003.40,0003.16
2022-06-01 01:47:00,,0830.9,5.01,0.00,28.1,27.1,00.0,37.1,30.0,22.8,0000.0,0004.71,0003.41,0003.17
2022-06-01 01:48:00,,0830.9,5.00,0.00,28.1,27.0,00.0,37.1,30.0,22.8,0000.0,0004.87,0003.43,0003.17
2022-06-01 01:49:00,,0830.9,5.00,0.00,28.1,27.0,00.0,37.1,30.0,22.6,0000.0,0004.90,0003.45,0003.18
2022-06-01 01:50:00,,0830.9,4.98,0.00,28.1,27.0,00.0,37.1,30.0,22.3,0000.0,0004.82,0003.41,0003.16
2022-06-01 01:51:00,,0831.0,5.01,0.00,28.1,27.0,00.0,37.0,30.0,22.1,0000.0,0004.76,0003.36,0003.10
2022-06-01 01:52:00,,0831.0,5.00,0.00,28.1,27.0,00.0,37.0,30.0,21.8,0000.0,0004.65,0003.31,0003.01
2022-06-01 01:53:00,,0831.1,5.01,0.00,28.1,27.1,00.0,37.0,30.0,21.7,0000.0,0004.03,0002.95,0002.56
2022-06-01 01:54:00,,0831.2,5.01,0.00,28.1,27.1,00.0,37.1,30.0,21.7,0000.0,0003.65,0002.65,0002.25
2022-06-01 01:55:00,,0831.2,5.00,0.00,28.1,27.1,00.0,37.0,30.0,21.8,0000.0,0003.73,0002.57,0002.17
2022-06-01 01:56:00,,0831.2,5.00,0.00,28.1,27.1,00.0,37.0,30.0,21.8,0000.0,0003.60,0002.49,0002.11
2022-06-01 01:57:00,,0831.2,5.00,0.00,28.1,27.1,00.0,37.0,30.0,21.8,0000.0,0003.57,0002.41,0002.02
2022-06-01 01:58:00,,0831.2,5.01,0.00,28.1,27.1,00.0,37.0,30.0,21.8,0000.0,0003.44,0002.34,0001.96
2022-06-01 01:59:00,,0831.1,5.00,0.00,28.1,27.1,00.0,37.1,30.0,21.8,0000.0,0003.23,0002.26,0001.92
